When you browse on this site, cookies collect data to enhance your experience and personalize the content and advertising you see.
Visit our Privacy Policy to learn more. By continuing to use the site, you agree to this use of cookies and data.
  • In Hungary
  • List of Countries
  • For 7 days
  • Water Temperature
  • Satellite Maps
  • Weather Map
  • News
  • Weather Widgets
  • user-avatar
    Login

    Hourly Weather Tocatlan

    Today, 23 February, Saturday

    Time Temperature Precipitation Wind Pressure Humidity
    00:00 +13°C° 0 mm 1 mps 559 mmHg 46%
    01:00 +12°C° 0 mm 1 mps 559 mmHg 49%
    02:00 +12°C° 0 mm 1 mps 558 mmHg 52%
    03:00 +11°C° 0 mm 1 mps 558 mmHg 55%
    04:00 +11°C° 0 mm 1 mps 558 mmHg 58%
    05:00 +9°C° 0 mm 0 mps 558 mmHg 61%
    06:00 +12°C° 0 mm 1 mps 559 mmHg 56%
    07:00 +14°C° 0 mm 1 mps 560 mmHg 51%
    08:00 +15°C° 0 mm 1 mps 561 mmHg 46%
    09:00 +18°C° 0 mm 1 mps 562 mmHg 39%
    10:00 +19°C° 0 mm 0 mps 563 mmHg 32%
    11:00 +21°C° 0 mm 0 mps 564 mmHg 26%
    12:00 +23°C° 0 mm 1 mps 564 mmHg 24%
    13:00 +24°C° 0 mm 1 mps 564 mmHg 23%
    14:00 +24°C° 0 mm 2 mps 563 mmHg 21%
    15:00 +23°C° 0 mm 2 mps 563 mmHg 26%
    16:00 +21°C° 0 mm 3 mps 562 mmHg 31%
    17:00 +20°C° 0 mm 3 mps 562 mmHg 36%
    18:00 +19°C° 0 mm 3 mps 562 mmHg 40%
    19:00 +18°C° 0 mm 3 mps 562 mmHg 44%
    20:00 +16°C° 0 mm 3 mps 562 mmHg 48%
    21:00 +16°C° 0 mm 2 mps 562 mmHg 50%
    22:00 +15°C° 0 mm 2 mps 562 mmHg 51%
    23:00 +14°C° 0 mm 2 mps 562 mmHg 52%

    Tomorrow, 24 February, Sunday

    Time Temperature Precipitation Wind Pressure Humidity
    00:00 +13°C° 0 mm 2 mps 561 mmHg 55%
    01:00 +12°C° 0 mm 2 mps 561 mmHg 59%
    02:00 +12°C° 0 mm 2 mps 560 mmHg 62%
    03:00 +10°C° 0 mm 2 mps 560 mmHg 68%
    04:00 +10°C° 0 mm 2 mps 560 mmHg 73%
    05:00 +9°C° 0 mm 2 mps 560 mmHg 79%
    06:00 +10°C° 0 mm 2 mps 561 mmHg 76%
    07:00 +11°C° 0 mm 3 mps 562 mmHg 74%
    08:00 +12°C° 0 mm 3 mps 563 mmHg 71%
    09:00 +14°C° 0 mm 3 mps 563 mmHg 64%
    10:00 +15°C° 0 mm 4 mps 564 mmHg 57%
    11:00 +18°C° 0 mm 4 mps 565 mmHg 50%
    12:00 +18°C° 0 mm 4 mps 564 mmHg 50%
    13:00 +18°C° 0 mm 4 mps 564 mmHg 50%
    14:00 +18°C° 0 mm 3 mps 563 mmHg 50%
    15:00 +17°C° 0.1 mm 4 mps 563 mmHg 56%
    16:00 +15°C° 0.1 mm 4 mps 562 mmHg 61%
    17:00 +14°C° 0.1 mm 4 mps 561 mmHg 67%
    18:00 +13°C° 0 mm 3 mps 561 mmHg 71%
    19:00 +12°C° 0 mm 3 mps 561 mmHg 75%
    20:00 +11°C° 0 mm 3 mps 562 mmHg 79%
    21:00 +11°C° 0 mm 3 mps 561 mmHg 80%
    22:00 +10°C° 0 mm 2 mps 561 mmHg 82%
    23:00 +10°C° 0 mm 2 mps 561 mmHg 84%

    Day after tomorrow, 25 February, Monday

    Time Temperature Precipitation Wind Pressure Humidity
    00:00 +9°C° 0 mm 2 mps 561 mmHg 85%
    01:00 +9°C° 0 mm 2 mps 560 mmHg 87%
    02:00 +10°C° 0 mm 1 mps 560 mmHg 88%
    03:00 +10°C° 0 mm 1 mps 560 mmHg 89%
    04:00 +9°C° 0 mm 1 mps 560 mmHg 89%
    05:00 +9°C° 0 mm 1 mps 560 mmHg 90%
    06:00 +11°C° 0 mm 1 mps 561 mmHg 83%
    07:00 +12°C° 0 mm 1 mps 562 mmHg 76%
    08:00 +13°C° 0 mm 1 mps 563 mmHg 68%
    09:00 +16°C° 0 mm 1 mps 564 mmHg 59%
    10:00 +19°C° 0 mm 1 mps 565 mmHg 49%
    11:00 +21°C° 0 mm 1 mps 566 mmHg 39%
    12:00 +22°C° 0 mm 1 mps 565 mmHg 37%
    13:00 +21°C° 0 mm 2 mps 565 mmHg 35%
    14:00 +23°C° 0 mm 2 mps 564 mmHg 33%
    15:00 +20°C° 0.5 mm 2 mps 564 mmHg 38%
    16:00 +19°C° 0.5 mm 2 mps 563 mmHg 44%
    17:00 +18°C° 0.5 mm 2 mps 562 mmHg 49%
    18:00 +18°C° 0.8 mm 1 mps 562 mmHg 55%
    19:00 +16°C° 0.8 mm 1 mps 562 mmHg 61%
    20:00 +15°C° 0.8 mm 1 mps 563 mmHg 67%
    21:00 +14°C° 0.7 mm 1 mps 562 mmHg 70%
    22:00 +14°C° 0.7 mm 1 mps 562 mmHg 72%
    23:00 +13°C° 0.7 mm 1 mps 562 mmHg 75%

    26 February, Tuesday

    Time Temperature Precipitation Wind Pressure Humidity
    00:00 +13°C° 0.1 mm 1 mps 561 mmHg 76%
    01:00 +12°C° 0.1 mm 1 mps 561 mmHg 77%
    02:00 +12°C° 0.1 mm 1 mps 560 mmHg 78%
    03:00 +12°C° 0 mm 1 mps 560 mmHg 79%
    04:00 +11°C° 0 mm 1 mps 560 mmHg 79%
    05:00 +11°C° 0 mm 1 mps 560 mmHg 80%
    06:00 +13°C° 0 mm 1 mps 561 mmHg 73%
    07:00 +14°C° 0 mm 1 mps 562 mmHg 67%
    08:00 +15°C° 0 mm 1 mps 563 mmHg 60%
    09:00 +18°C° 0 mm 1 mps 564 mmHg 51%
    10:00 +20°C° 0 mm 1 mps 565 mmHg 42%
    11:00 +22°C° 0 mm 1 mps 565 mmHg 33%
    12:00 +23°C° 0 mm 2 mps 565 mmHg 31%
    13:00 +23°C° 0 mm 2 mps 564 mmHg 29%
    14:00 +24°C° 0 mm 2 mps 564 mmHg 27%
    15:00 +23°C° 0.2 mm 2 mps 564 mmHg 32%
    16:00 +21°C° 0.2 mm 2 mps 563 mmHg 37%
    17:00 +19°C° 0.2 mm 2 mps 563 mmHg 42%
    18:00 +19°C° 0.5 mm 1 mps 563 mmHg 47%
    19:00 +18°C° 0.5 mm 1 mps 563 mmHg 53%
    20:00 +16°C° 0.5 mm 1 mps 563 mmHg 59%
    21:00 +16°C° 0.3 mm 1 mps 563 mmHg 61%
    22:00 +15°C° 0.3 mm 1 mps 562 mmHg 63%
    23:00 +15°C° 0.3 mm 1 mps 562 mmHg 66%

    27 February, Wednesday

    Time Temperature Precipitation Wind Pressure Humidity
    00:00 +14°C° 0 mm 1 mps 561 mmHg 67%
    01:00 +14°C° 0 mm 1 mps 561 mmHg 67%
    02:00 +14°C° 0 mm 1 mps 560 mmHg 68%
    03:00 +13°C° 0 mm 1 mps 560 mmHg 69%
    04:00 +13°C° 0 mm 1 mps 560 mmHg 70%
    05:00 +12°C° 0 mm 1 mps 560 mmHg 71%
    06:00 +12°C° 0 mm 0 mps 561 mmHg 65%
    07:00 +14°C° 0 mm 0 mps 562 mmHg 59%
    08:00 +15°C° 0 mm 0 mps 563 mmHg 53%
    09:00 +17°C° 0 mm 0 mps 564 mmHg 45%
    10:00 +21°C° 0 mm 1 mps 565 mmHg 36%
    11:00 +23°C° 0 mm 1 mps 565 mmHg 28%
    12:00 +23°C° 0 mm 1 mps 565 mmHg 26%
    13:00 +24°C° 0 mm 2 mps 564 mmHg 24%
    14:00 +24°C° 0 mm 2 mps 564 mmHg 22%
    15:00 +23°C° 0 mm 2 mps 563 mmHg 26%
    16:00 +23°C° 0 mm 2 mps 563 mmHg 30%
    17:00 +21°C° 0 mm 2 mps 562 mmHg 34%
    18:00 +19°C° 0 mm 2 mps 562 mmHg 40%
    19:00 +19°C° 0 mm 1 mps 562 mmHg 45%
    20:00 +18°C° 0 mm 1 mps 562 mmHg 51%
    21:00 +16°C° 0 mm 1 mps 562 mmHg 53%
    22:00 +15°C° 0 mm 1 mps 561 mmHg 56%
    23:00 +15°C° 0 mm 1 mps 561 mmHg 59%

    28 February, Thursday

    Time Temperature Precipitation Wind Pressure Humidity
    00:00 +14°C° 0 mm 1 mps 560 mmHg 59%
    01:00 +14°C° 0 mm 1 mps 560 mmHg 60%
    02:00 +13°C° 0 mm 1 mps 559 mmHg 60%
    03:00 +13°C° 0 mm 1 mps 559 mmHg 62%
    04:00 +12°C° 0 mm 1 mps 559 mmHg 63%
    05:00 +12°C° 0 mm 1 mps 559 mmHg 65%
    06:00 +13°C° 0 mm 1 mps 560 mmHg 61%
    07:00 +15°C° 0 mm 1 mps 561 mmHg 56%
    08:00 +16°C° 0 mm 1 mps 562 mmHg 52%
    09:00 +18°C° 0 mm 2 mps 563 mmHg 44%
    10:00 +20°C° 0 mm 2 mps 563 mmHg 35%
    11:00 +23°C° 0 mm 2 mps 564 mmHg 27%
    12:00 +24°C° 0 mm 2 mps 563 mmHg 25%
    13:00 +24°C° 0 mm 2 mps 563 mmHg 23%
    14:00 +25°C° 0 mm 2 mps 563 mmHg 21%
    15:00 +24°C° 0 mm 2 mps 562 mmHg 25%
    16:00 +23°C° 0 mm 2 mps 562 mmHg 28%
    17:00 +22°C° 0 mm 3 mps 561 mmHg 31%
    18:00 +20°C° 0 mm 2 mps 561 mmHg 37%
    19:00 +18°C° 0 mm 2 mps 561 mmHg 42%
    20:00 +17°C° 0 mm 2 mps 560 mmHg 48%
    21:00 +16°C° 0 mm 1 mps 560 mmHg 50%
    22:00 +16°C° 0 mm 1 mps 560 mmHg 52%
    23:00 +15°C° 0 mm 1 mps 560 mmHg 54%
    Show more